Weather reports worldwide

Advertisment
Sines, Portugal (8541): temperature & dewpoint: 23.05.2020 14:00:00 - 29.05.2020 14:00:00 (WEST)Sines, Portugal (8541): wind speed & gusts: 23.05.2020 14:00:00 - 29.05.2020 14:00:00 (WEST)Sines, Portugal (8541): wind direction: 23.05.2020 14:00:00 - 29.05.2020 14:00:00 (WEST)Sines, Portugal (8541): reduced air pressure: 23.05.2020 14:00:00 - 29.05.2020 14:00:00 (WEST)Sines, Portugal (8541): visibility: 23.05.2020 14:00:00 - 29.05.2020 14:00:00 (WEST)Sines, Portugal (8541): precipitation: 23.05.2020 14:00:00 - 29.05.2020 14:00:00 (WEST)
Date & Time tt [°C] td [°C] ff [km/h] ff [kn] fx [km/h] fx [kn] dd ppp [hPa] vv [km] rr [mm]
29.05.2020 14:00:00 - - - - - - - - - -
29.05.2020 13:00:00 24,0 16,0 14 8 - - SW 1015,2 30 0,0
29.05.2020 12:00:00 23,5 15,7 11 6 22 12 SW 1015,4 30 0,0
29.05.2020 11:00:00 22,5 15,7 11 6 18 10 WSW 1015,5 30 0,0
29.05.2020 10:00:00 22,0 16,2 11 6 - - WSW 1015,4 30 0,0
29.05.2020 09:00:00 21,3 16,5 7 4 - - SSW 1015,4 - 0,0
29.05.2020 08:00:00 20,2 16,4 7 4 - - S 1015,1 - 0,0
29.05.2020 07:00:00 18,0 16,3 11 6 - - S 1015,3 - 0,0
29.05.2020 06:00:00 17,3 17,2 7 4 - - SSW 1015,0 - 0,0
29.05.2020 05:00:00 17,6 17,4 11 6 18 10 S 1015,0 - 0,0
29.05.2020 04:00:00 17,9 17,6 11 6 - - S 1015,5 - 0,0
29.05.2020 03:00:00 17,8 17,6 14 8 22 12 S 1015,6 - 0,0
29.05.2020 02:00:00 17,8 17,7 7 4 - - SSE 1015,6 - 0,0
29.05.2020 01:00:00 17,9 17,5 7 4 - - S 1016,2 - 0,0
29.05.2020 00:00:00 18,4 17,9 7 4 - - SSW 1016,6 - 0,0
28.05.2020 23:00:00 18,8 17,5 7 4 - - SW 1016,9 - 0,0
28.05.2020 22:00:00 19,3 17,3 7 4 - - W 1016,8 - -
28.05.2020 21:00:00 19,4 17,4 11 6 18 10 WNW 1016,7 - 0,0
28.05.2020 20:00:00 20,8 17,7 11 6 25 14 WNW 1016,7 - 0,0
28.05.2020 19:00:00 22,1 17,7 14 8 - - W 1016,7 40 0,0
28.05.2020 18:00:00 22,5 17,6 14 8 25 14 W 1016,7 - 0,0
28.05.2020 17:00:00 23,8 17,5 14 8 25 14 WSW 1016,4 - 0,0
28.05.2020 16:00:00 26,5 15,3 11 6 - - W 1016,7 40 0,0
28.05.2020 15:00:00 26,7 16,0 22 12 - - NW 1016,7 50 0,0
28.05.2020 14:00:00 26,4 16,1 18 10 - - NW 1017,2 50 0,0
28.05.2020 13:00:00 26,4 17,6 18 10 - - NW 1017,6 - 0,0
28.05.2020 12:00:00 29,7 11,9 11 6 25 14 ESE 1017,7 50 0,0
28.05.2020 11:00:00 27,8 13,2 14 8 25 14 ESE 1018,0 40 0,0
28.05.2020 10:00:00 26,7 14,4 7 4 - - ENE 1018,2 40 0,0
28.05.2020 09:00:00 22,6 16,1 11 6 18 10 ESE 1018,2 - 0,0
28.05.2020 08:00:00 19,5 15,7 11 6 - - ESE 1017,9 - 0,0
28.05.2020 07:00:00 17,4 15,9 7 4 - - ESE 1018,0 - 0,0
28.05.2020 06:00:00 16,8 15,7 0 0 - - N 1017,8 - 0,0
28.05.2020 05:00:00 16,4 15,4 4 2 - - ESE 1018,0 - 0,0
28.05.2020 04:00:00 18,0 16,3 4 2 - - SSW 1018,2 - 0,0
28.05.2020 03:00:00 17,3 16,0 14 8 22 12 S 1018,7 - 0,0
28.05.2020 02:00:00 17,4 16,5 14 8 22 12 S 1018,8 - 0,0
28.05.2020 01:00:00 17,6 16,2 11 6 - - S 1018,9 - 0,0
28.05.2020 00:00:00 18,5 16,0 7 4 - - SSW 1019,1 - 0,0
27.05.2020 23:00:00 19,1 15,6 11 6 22 12 W 1019,0 - 0,0
27.05.2020 22:00:00 19,5 16,3 14 8 - - W 1018,6 - -
27.05.2020 21:00:00 19,9 16,1 14 8 25 14 W 1018,5 - 0,0
27.05.2020 20:00:00 20,7 15,9 18 10 - - W 1018,1 - 0,0
27.05.2020 19:00:00 21,5 16,7 11 6 - - WSW 1017,9 40 0,0
27.05.2020 18:00:00 22,7 15,8 14 8 36 19 WNW 1017,6 - 0,0
27.05.2020 17:00:00 25,2 15,5 18 10 32 18 NNW 1017,1 - 0,0
27.05.2020 16:00:00 26,2 16,5 22 12 - - NNW 1017,2 40 0,0
27.05.2020 15:00:00 26,3 15,9 25 14 - - NNW 1017,5 40 0,0
27.05.2020 14:00:00 27,4 16,1 18 10 32 18 NNW 1017,9 40 0,0
27.05.2020 13:00:00 26,5 16,0 18 10 - - NNW 1018,4 40 0,0
27.05.2020 12:00:00 25,2 16,3 14 8 22 12 NW 1018,9 40 0,0
27.05.2020 11:00:00 27,3 14,0 11 6 18 10 N 1018,8 50 0,0
27.05.2020 10:00:00 25,7 13,9 7 4 - - E 1019,0 50 0,0
27.05.2020 09:00:00 23,2 14,0 7 4 - - NE 1019,0 - 0,0
27.05.2020 08:00:00 21,4 13,6 7 4 - - E 1018,8 - 0,0
27.05.2020 07:00:00 18,6 13,8 7 4 - - E 1018,3 - 0,0
27.05.2020 06:00:00 16,9 13,9 7 4 - - SE 1018,0 - 0,0
27.05.2020 05:00:00 16,9 14,1 11 6 - - SE 1018,1 - 0,0
27.05.2020 04:00:00 17,4 14,8 11 6 - - SSE 1018,2 - 0,0
27.05.2020 03:00:00 17,7 15,2 14 8 22 12 S 1018,2 - 0,0
27.05.2020 02:00:00 17,6 15,8 18 10 - - S 1018,4 - 0,0
27.05.2020 01:00:00 17,7 16,3 14 8 - - S 1018,6 - 0,0
27.05.2020 00:00:00 17,7 17,0 11 6 18 10 S 1018,6 - 0,0
26.05.2020 23:00:00 17,8 17,0 11 6 - - S 1018,9 - 0,0
26.05.2020 22:00:00 18,5 17,1 7 4 - - SW 1018,8 - -
26.05.2020 21:00:00 19,1 16,6 11 6 - - WSW 1018,8 - 0,0
26.05.2020 20:00:00 20,9 16,1 7 4 18 10 WSW 1018,5 - 0,0
26.05.2020 19:00:00 22,2 16,6 14 8 - - NW 1018,3 30 0,0
26.05.2020 18:00:00 23,6 14,7 22 12 54 29 NNW 1018,3 - 0,0
26.05.2020 17:00:00 24,8 14,0 32 18 - - NW 1018,1 - 0,0
26.05.2020 16:00:00 25,7 13,4 29 16 - - NW 1018,5 50 0,0
26.05.2020 15:00:00 26,8 12,6 25 14 - - NW 1018,8 50 0,0
26.05.2020 14:00:00 27,0 11,9 22 12 32 18 NW 1019,3 50 0,0
26.05.2020 13:00:00 26,4 12,8 22 12 - - NNW 1019,8 50 0,0
26.05.2020 12:00:00 25,8 14,0 18 10 29 16 NNW 1020,0 20 0,0
26.05.2020 11:00:00 24,4 14,3 18 10 - - NW 1020,1 15 0,0
26.05.2020 10:00:00 24,6 15,4 7 4 - - NE 1020,2 15 0,0
26.05.2020 09:00:00 22,6 15,5 7 4 - - NNE 1020,1 - 0,0
26.05.2020 08:00:00 21,0 16,1 4 2 - - ENE 1019,9 - 0,0
26.05.2020 07:00:00 16,7 16,5 11 6 - - ESE 1020,1 - 0,0
26.05.2020 06:00:00 16,3 16,0 4 2 - - SW 1019,7 - 0,0
26.05.2020 05:00:00 15,7 15,7 7 4 - - SSE 1019,6 - 0,0
26.05.2020 04:00:00 15,6 15,5 7 4 - - S 1019,4 - 0,0
26.05.2020 03:00:00 16,2 16,1 11 6 - - S 1019,7 - 0,0
26.05.2020 02:00:00 16,2 16,1 14 8 - - S 1020,1 - 0,0
26.05.2020 01:00:00 16,4 16,2 11 6 - - S 1020,4 - 0,0
26.05.2020 00:00:00 16,5 15,8 7 4 - - SSE 1020,2 - 0,0
25.05.2020 23:00:00 17,3 16,1 7 4 - - N 1020,3 - 0,0
25.05.2020 22:00:00 17,6 16,4 11 6 - - NNW 1020,0 - -
25.05.2020 21:00:00 18,2 16,4 11 6 25 14 NW 1019,7 - 0,0
25.05.2020 20:00:00 19,2 16,9 11 6 25 14 NNW 1019,6 - 0,0
25.05.2020 19:00:00 20,3 17,0 18 10 - - NNW 1019,5 20 0,0
25.05.2020 18:00:00 21,6 17,3 18 10 - - NW 1019,9 - 0,0
25.05.2020 17:00:00 22,6 17,1 18 10 - - NW 1020,3 - 0,0
25.05.2020 16:00:00 22,7 17,4 18 10 - - NW 1021,0 - 0,0
25.05.2020 15:00:00 22,7 16,5 14 8 22 12 NW 1021,4 40 0,0
25.05.2020 14:00:00 23,9 16,8 14 8 22 12 NW 1021,7 40 0,0
25.05.2020 13:00:00 24,2 15,9 11 6 - - NW 1022,1 40 0,0
25.05.2020 12:00:00 23,2 15,5 14 8 22 12 NW 1022,5 30 0,0
25.05.2020 11:00:00 21,8 14,8 11 6 18 10 NW 1022,6 30 0,0
25.05.2020 10:00:00 21,2 15,1 7 4 - - NW 1022,8 30 0,0
25.05.2020 09:00:00 19,5 14,7 11 6 - - NNW 1022,9 - 0,0
25.05.2020 08:00:00 18,7 14,5 4 2 - - N 1022,8 - 0,0
25.05.2020 07:00:00 16,8 13,6 11 6 - - NE 1022,7 - 0,0
25.05.2020 06:00:00 16,1 13,3 14 8 - - NNE 1022,5 - 0,0
25.05.2020 05:00:00 16,7 13,1 14 8 - - N 1022,3 - 0,0
25.05.2020 04:00:00 16,9 13,7 14 8 - - NNE 1022,4 - 0,0
25.05.2020 03:00:00 16,6 13,9 7 4 18 10 N 1022,6 - 0,0
25.05.2020 02:00:00 17,8 14,4 18 10 - - N 1022,6 - 0,0
25.05.2020 01:00:00 18,6 16,2 11 6 - - NE 1022,7 - 0,0
25.05.2020 00:00:00 16,7 15,7 4 2 - - SSE 1023,0 - 0,0
24.05.2020 23:00:00 17,6 16,1 7 4 - - NNE 1022,6 - 0,0
24.05.2020 22:00:00 17,3 16,4 11 6 - - NNW 1022,4 - -
24.05.2020 21:00:00 17,8 16,6 14 8 - - NNW 1022,1 - 0,0
24.05.2020 20:00:00 20,0 16,6 11 6 25 14 NNW 1021,8 - 0,0
24.05.2020 19:00:00 21,6 17,2 14 8 - - NNW 1021,8 - 0,0
24.05.2020 18:00:00 21,8 16,8 18 10 29 16 NNW 1022,0 - 0,0
24.05.2020 17:00:00 22,2 16,6 14 8 32 18 NNW 1022,2 - 0,0
24.05.2020 16:00:00 22,7 17,4 18 10 - - NNW 1022,5 - 0,0
24.05.2020 15:00:00 24,1 15,6 18 10 29 16 NNW 1022,7 - 0,0
24.05.2020 14:00:00 22,6 15,5 18 10 29 16 NNW 1023,1 - 0,0
24.05.2020 13:00:00 22,3 15,7 18 10 - - NNW 1023,3 25 0,0
24.05.2020 12:00:00 21,6 15,4 22 12 - - NW 1023,1 - 0,0
24.05.2020 11:00:00 20,8 15,2 14 8 29 16 NNW 1023,2 - 0,0
24.05.2020 10:00:00 20,5 14,7 18 10 - - NNW 1023,4 - 0,0
24.05.2020 09:00:00 20,5 13,6 11 6 18 10 N 1023,4 - 0,0
24.05.2020 08:00:00 18,5 14,2 11 6 25 14 N 1023,4 - 0,0
24.05.2020 07:00:00 15,6 13,3 14 8 - - N 1023,0 - 0,0
24.05.2020 06:00:00 15,4 13,3 18 10 29 16 N 1022,7 - 0,0
24.05.2020 05:00:00 15,3 12,7 18 10 32 18 NNE 1022,9 - 0,0
24.05.2020 04:00:00 15,7 12,1 22 12 - - NNE 1023,1 - 0,0
24.05.2020 03:00:00 15,9 11,9 18 10 29 16 N 1023,3 - 0,0
24.05.2020 02:00:00 16,5 11,5 22 12 - - N 1023,8 - 0,0
24.05.2020 01:00:00 17,6 10,6 22 12 - - N 1024,0 - 0,0
24.05.2020 00:00:00 17,5 10,8 18 10 29 16 N 1024,2 - 0,0
23.05.2020 23:00:00 19,0 11,6 22 12 36 19 N 1024,3 - 0,0
23.05.2020 22:00:00 20,5 11,9 25 14 - - N 1023,8 - -
23.05.2020 21:00:00 20,3 15,5 22 12 - - N 1023,4 - 0,0
23.05.2020 20:00:00 20,9 16,3 14 8 29 16 NNW 1023,2 - 0,0
23.05.2020 19:00:00 22,6 16,6 18 10 - - NNW 1022,9 - 0,0
23.05.2020 18:00:00 22,7 16,7 29 16 - - NNW 1023,1 - 0,0
23.05.2020 17:00:00 24,5 16,6 25 14 - - NNW 1023,3 - 0,0
23.05.2020 16:00:00 25,0 15,5 22 12 - - NNW 1023,5 - 0,0
23.05.2020 15:00:00 25,8 15,5 22 12 36 19 NNW 1023,7 - 0,0
23.05.2020 14:00:00 25,8 15,5 22 12 40 21 NNW 1024,1 - 0,0

tt = temperature
td = dewpoint
ff = wind speed
fx = gusts
dd = wind direction
ppp = reduced air pressure
vv = visibility
rr = precipitation

Next stations